Hourly Data Report for May 29, 2017

TORONTO CITY
ONTARIO

43°40'00.000" N
79°24'00.000" W
112.50 m
6158355
71508
XTO

Download Data

Hourly Data (May 2017)
Hourly Data Report for May 29, 2017
TIME
LST
Temp Definition
°C
Dew Point Definition
°C
Rel Hum Definition
%
Precip. Amount Definition
mm

Wind Dir Definition
10's deg

Wind Spd Definition
km/h
Visibility Definition
km
Stn Press Definition
kPa
Hmdx Definition


Wind Chill Definition


Weather Definition


00:00 16.6 12.8 78 0.0 LegendMM LegendMM   99.07     LegendNANA
01:00 15.8 12.0 78 0.0 LegendMM LegendMM   99.12     LegendNANA
02:00 16.2 12.9 81 0.0 LegendMM LegendMM   99.12     LegendNANA
03:00 16.0 12.8 81 0.0 LegendMM LegendMM   99.18     LegendNANA
04:00 16.1 13.5 85 0.0 LegendMM LegendMM   99.15     LegendNANA
05:00 15.1 13.1 88 0.0 LegendMM LegendMM   99.17     LegendNANA
06:00 15.2 13.4 89 0.0 LegendMM LegendMM   99.27     LegendNANA
07:00 15.3 13.9 91 0.3 LegendMM LegendMM   99.33     LegendNANA
08:00 17.4 15.2 87 0.0 LegendMM LegendMM   99.33     LegendNANA
09:00 18.5 14.9 80 0.0 LegendMM LegendMM   99.35     LegendNANA
10:00
11:00
12:00
13:00
14:00 25.7 8.0 33 0.0 LegendMM LegendMM   99.49 26   LegendNANA
15:00 26.0 5.8 27 0.0 LegendMM LegendMM   99.50 26   LegendNANA
16:00 26.0 4.4 25 0.0 LegendMM LegendMM   99.53 25   LegendNANA
17:00 23.0 6.8 35 0.0 LegendMM LegendMM   99.56     LegendNANA
18:00 20.9 8.8 46 0.0 LegendMM LegendMM   99.60     LegendNANA
19:00 19.3 11.2 59 0.0 LegendMM LegendMM   99.69     LegendNANA
20:00 18.8 11.2 61 0.0 LegendMM LegendMM   99.70     LegendNANA
21:00 17.7 11.0 65 0.0 LegendMM LegendMM   99.70     LegendNANA
22:00 17.6 11.2 66 0.0 LegendMM LegendMM   99.71     LegendNANA
23:00 17.0 11.3 69 0.0 LegendMM LegendMM   99.70     LegendNANA

Notes on Data Quality.

Legend

  • E = Estimated
  • M = Missing
  • NA = Not Available*
  • [empty] = Indicates an unobserved value
Date modified: